Probability
74 81 84 84 81 81 87 87 84 77 81 81 74 77 68 71 71 68 61 61 61 58 55 52 45 48 45 45 42 39 39 29 26 19 16 19 16 10 10 13 13 3 3
74 77 84 77 77 77 71 77 77 71 65 68 74 77 68 61 65 58 58 55 55 52 52 45 42 39 39 42 42 35 35 26 23 16 16 16 13 10 10 13 3 3 0
71 68 71 74 74 74 71 71 68 65 55 55 65 58 55 52 52 52 58 55 52 52 48 45 35 35 35 35 32 32 26 23 23 19 16 16 13 13 10 10 3 3 3
68 65 68 74 74 71 68 68 68 65 55 58 52 55 48 52 35 45 48 45 48 45 42 42 39 32 29 32 29 26 23 23 23 19 16 16 13 13 10 6 6 6 3
65 65 61 68 68 65 65 61 61 58 39 55 45 45 45 32 23 32 29 35 35 26 29 29 29 26 23 23 19 23 19 23 19 16 13 13 10 10 3 3 6 6 3
61 61 58 58 61 65 61 61 48 45 45 48 48 39 32 19 10 10 19 23 23 26 29 19 23 19 13 10 10 6 13 19 16 23 13 10 10 10 6 3 3 3 3
52 52 58 55 55 55 52 52 48 48 45 48 48 42 35 16 6 6 3 16 19 23 19 23 19 16 10 13 6 0 0 0 0 19 13 10 10 10 6 3 3 6 3
58 61 55 55 45 42 52 52 55 58 48 48 42 39 32 19 6 3 6 6 16 19 19 19 16 16 10 13 13 13 10 6 0 0 0 3 3 13 10 6 6 6 6
52 58 52 48 42 45 52 58 55 52 48 52 45 42 35 16 3 3 0 16 13 13 13 13 13 13 10 10 10 13 13 13 0 0 0 0 0 3 6 6 6 6 3
58 58 55 52 45 45 52 61 58 55 48 48 42 39 35 26 10 3 0 10 13 10 13 13 13 13 6 3 6 13 13 13 10 3 3 0 0 0 0 3 6 3 3
52 58 58 48 39 45 55 58 55 58 55 48 42 42 39 23 10 3 0 6 10 10 10 10 10 0 0 0 0 6 10 6 10 3 3 3 3 3 3 3 6 6 3
52 48 45 52 42 39 55 42 45 52 45 45 45 32 32 19 13 3 0 0 3 10 10 10 10 0 0 0 0 0 0 0 6 6 3 3 3 3 3 3 3 3 3
52 48 48 52 52 45 48 39 42 42 42 32 29 29 32 23 13 6 0 0 0 0 10 10 6 0 0 0 0 0 0 0 0 3 3 3 3 3 6 6 3 3 3
42 42 45 42 42 45 48 39 32 39 32 32 29 29 23 16 13 13 3 0 0 0 0 0 0 0 0 0 0 3 3 0 0 0 0 3 3 3 6 6 3 3 3
35 42 39 32 35 32 29 32 29 29 32 23 26 29 23 16 13 10 16 6 3 6 3 0 0 0 0 0 0 0 0 3 0 0 3 3 3 3 3 6 6 3 3
35 39 32 26 32 29 26 26 6 10 13 6 16 16 16 10 0 0 3 0 0 0 0 0 3 0 0 0 0 0 0 0 3 3 3 3 3 3 3 6 3 3 3
39 39 29 23 26 26 29 23 13 6 3 0 0 0 0 0 0 0 0 0 0 0 0 3 0 3 0 0 0 0 0 0 0 3 3 3 3 3 3 6 3 3 3
39 29 23 26 23 23 23 19 19 16 13 10 3 0 0 0 0 0 0 0 0 0 0 0 0 3 3 3 3 0 0 0 3 3 3 3 6 6 3 3 3 3 3
35 26 29 26 26 26 19 19 19 19 13 16 16 3 0 0 0 0 0 3 0 0 0 0 0 3 3 10 10 10 10 3 3 6 3 3 3 6 3 3 3 3 3
32 23 23 23 23 19 19 19 19 16 13 13 13 10 0 0 0 0 0 0 0 0 0 3 3 6 6 10 13 13 10 3 3 3 6 6 6 6 6 3 3 3 3
32 23 13 23 19 19 23 19 16 16 13 13 10 13 0 6 6 6 6 0 0 0 0 3 3 10 13 13 10 13 13 6 6 3 6 6 6 3 3 3 3 3 3
26 29 23 19 16 19 19 13 13 19 10 6 6 6 0 0 3 6 6 6 3 6 3 3 3 3 6 10 10 10 6 6 3 3 3 3 3 3 3 3 3 3 3
26 26 23 23 23 13 16 16 10 6 6 6 6 6 3 3 3 3 0 0 3 6 0 3 6 3 3 3 10 10 6 6 6 3 3 3 3 3 3 3 3 3 3
26 23 19 23 19 13 10 10 6 6 6 6 6 3 0 0 0 0 0 0 0 0 0 0 0 0 3 3 6 10 6 6 6 6 3 3 3 3 3 3 3 3 3
23 23 19 16 13 10 10 10 6 6 6 6 3 0 0 3 3 3 3 6 0 0 0 0 0 0 3 3 3 3 6 3 3 6 3 3 3 3 3 3 3 3 3
19 13 10 6 10 10 10 6 3 6 3 0 3 0 0 3 3 3 3 3 3 0 0 0 0 0 3 3 3 3 3 0 0 0 3 3 3 3 3 3 3 3 3
Height
5887 5886 5884 5883 5881 5880 5878 5876 5875 5874 5872 5870 5869 5867 5865 5863 5861 5860 5858 5857 5856 5855 5854 5853 5851 5850 5849 5848 5846 5845 5844 5843 5842 5841 5839 5838 5836 5834 5833 5832 5831 5830 5829
5885 5884 5882 5881 5879 5877 5876 5874 5873 5871 5869 5868 5866 5864 5862 5860 5858 5856 5855 5854 5852 5851 5850 5848 5847 5846 5845 5843 5842 5840 5839 5838 5837 5835 5834 5832 5831 5829 5828 5826 5825 5823 5822
5883 5881 5880 5878 5877 5875 5874 5872 5870 5868 5866 5865 5863 5861 5858 5856 5854 5853 5851 5850 5848 5847 5845 5844 5843 5841 5840 5838 5837 5835 5834 5833 5831 5830 5829 5827 5825 5824 5822 5821 5819 5818 5816
5880 5878 5877 5876 5874 5872 5871 5869 5867 5865 5863 5861 5859 5857 5855 5852 5851 5849 5847 5846 5844 5843 5841 5839 5838 5836 5835 5833 5832 5830 5829 5828 5826 5825 5823 5821 5820 5818 5816 5814 5813 5812 5811
5876 5875 5874 5872 5871 5869 5867 5865 5864 5862 5860 5858 5856 5853 5851 5849 5847 5845 5843 5842 5840 5838 5837 5835 5833 5831 5830 5828 5827 5825 5824 5822 5821 5819 5817 5816 5814 5812 5810 5809 5807 5806 5805
5872 5871 5869 5868 5866 5864 5863 5861 5859 5857 5856 5854 5852 5849 5847 5845 5843 5841 5839 5838 5836 5834 5832 5830 5828 5826 5825 5823 5822 5820 5818 5817 5815 5813 5812 5810 5808 5806 5804 5803 5801 5800 5799
5867 5866 5865 5863 5862 5860 5858 5856 5855 5853 5851 5849 5847 5845 5842 5840 5838 5836 5834 5833 5831 5829 5827 5825 5823 5821 5819 5818 5816 5814 5812 5811 5809 5807 5806 5804 5802 5800 5799 5797 5795 5794 5793
5862 5860 5859 5858 5856 5854 5852 5851 5849 5847 5846 5844 5842 5839 5837 5835 5833 5831 5829 5827 5825 5823 5821 5819 5818 5816 5814 5812 5810 5808 5806 5804 5802 5801 5799 5798 5796 5794 5793 5791 5789 5788 5787
5856 5855 5853 5852 5850 5848 5847 5845 5843 5841 5840 5838 5836 5833 5831 5829 5826 5824 5822 5820 5819 5817 5815 5813 5811 5809 5808 5805 5803 5802 5800 5798 5796 5794 5792 5791 5789 5787 5786 5785 5783 5782 5781
5850 5848 5847 5845 5843 5841 5840 5838 5837 5835 5833 5831 5829 5827 5824 5822 5819 5816 5815 5813 5812 5810 5808 5806 5804 5802 5800 5798 5796 5794 5793 5791 5789 5787 5785 5784 5782 5781 5779 5778 5777 5775 5774
5843 5841 5840 5838 5837 5835 5833 5832 5830 5828 5826 5824 5822 5820 5818 5815 5813 5810 5808 5806 5804 5802 5801 5799 5796 5794 5792 5791 5789 5787 5785 5783 5781 5780 5778 5777 5775 5774 5772 5771 5770 5768 5767
5835 5834 5832 5831 5829 5827 5826 5824 5822 5820 5818 5817 5815 5812 5810 5808 5805 5803 5800 5798 5796 5795 5793 5791 5789 5787 5785 5782 5780 5779 5776 5774 5773 5771 5770 5769 5768 5766 5765 5764 5762 5761 5760
5827 5826 5824 5823 5821 5819 5817 5815 5813 5812 5810 5808 5806 5804 5802 5800 5798 5795 5793 5791 5789 5787 5785 5783 5781 5779 5776 5774 5772 5770 5768 5766 5764 5763 5762 5761 5760 5758 5757 5756 5755 5754 5752
5819 5818 5816 5814 5812 5810 5808 5806 5805 5803 5802 5800 5798 5796 5793 5792 5790 5787 5785 5783 5781 5778 5776 5774 5772 5770 5768 5766 5763 5761 5759 5757 5756 5754 5753 5752 5751 5750 5749 5748 5747 5746 5745
5810 5809 5807 5806 5804 5802 5800 5798 5796 5795 5793 5791 5789 5786 5784 5783 5781 5779 5777 5775 5772 5770 5767 5765 5763 5761 5759 5757 5755 5753 5751 5749 5747 5746 5745 5744 5743 5742 5742 5741 5739 5738 5737
5802 5800 5799 5797 5796 5794 5792 5790 5788 5786 5784 5782 5780 5778 5775 5774 5772 5770 5768 5765 5763 5761 5759 5757 5754 5752 5750 5748 5746 5744 5742 5740 5739 5738 5736 5735 5735 5734 5734 5733 5731 5730 5729
5793 5791 5790 5788 5787 5785 5783 5781 5780 5778 5776 5773 5771 5769 5766 5764 5762 5760 5758 5756 5754 5751 5749 5747 5745 5743 5741 5738 5736 5734 5733 5731 5730 5729 5728 5727 5726 5725 5725 5724 5723 5722 5721
5783 5782 5781 5779 5777 5775 5773 5771 5770 5768 5766 5764 5762 5760 5758 5755 5753 5751 5748 5746 5744 5742 5740 5738 5736 5734 5731 5729 5726 5725 5723 5722 5721 5720 5719 5718 5717 5716 5715 5715 5714 5713 5712
5774 5773 5771 5770 5768 5767 5764 5763 5761 5759 5757 5755 5753 5751 5749 5746 5744 5741 5739 5737 5735 5733 5730 5728 5726 5723 5721 5719 5717 5716 5714 5713 5712 5711 5710 5708 5707 5707 5706 5705 5704 5703 5702
5764 5763 5761 5760 5759 5757 5755 5754 5752 5750 5748 5746 5744 5743 5740 5737 5734 5732 5730 5727 5725 5723 5721 5718 5716 5713 5711 5709 5708 5706 5705 5704 5702 5701 5700 5699 5698 5698 5697 5696 5695 5694 5693
5753 5753 5751 5750 5749 5748 5746 5745 5743 5741 5739 5737 5735 5733 5731 5728 5725 5723 5721 5718 5715 5713 5711 5708 5706 5703 5701 5700 5698 5696 5695 5694 5693 5692 5690 5690 5689 5688 5688 5687 5686 5685 5684
5743 5742 5741 5740 5739 5738 5736 5735 5733 5732 5730 5728 5726 5724 5722 5719 5716 5714 5711 5708 5706 5703 5701 5698 5696 5694 5692 5690 5688 5687 5685 5684 5683 5682 5681 5680 5679 5679 5678 5677 5677 5676 5675
5733 5732 5731 5730 5729 5728 5726 5725 5723 5722 5720 5719 5716 5714 5712 5709 5707 5704 5702 5699 5696 5694 5691 5689 5686 5684 5682 5680 5679 5677 5676 5674 5673 5672 5671 5670 5670 5669 5668 5668 5667 5666 5665
5724 5723 5722 5721 5720 5718 5717 5715 5714 5712 5711 5709 5706 5704 5702 5700 5697 5695 5692 5690 5687 5684 5682 5680 5677 5675 5673 5670 5668 5667 5666 5664 5663 5662 5661 5660 5660 5659 5658 5657 5657 5656 5655
5715 5714 5713 5711 5710 5709 5707 5706 5704 5703 5701 5699 5696 5694 5692 5690 5688 5685 5682 5680 5677 5674 5672 5670 5668 5665 5663 5661 5659 5657 5655 5654 5653 5652 5651 5650 5649 5649 5648 5647 5646 5645 5644
5706 5705 5704 5702 5701 5699 5698 5697 5695 5693 5691 5689 5687 5685 5682 5680 5677 5675 5672 5669 5667 5664 5662 5659 5657 5655 5653 5651 5649 5647 5646 5644 5643 5641 5640 5640 5639 5638 5637 5636 5635 5634 5634
Wind_Speed
13 13 14 14 13 14 14 14 14 15 15 16 17 17 17 17 16 16 16 16 16 17 16 17 17 17 17 18 18 18 18 19 19 19 19 20 20 20 21 22 21 21 22
14 15 15 14 15 15 15 15 15 16 16 17 17 18 18 18 17 17 17 18 18 18 18 18 18 18 18 19 19 19 19 19 19 19 20 21 21 21 22 22 22 22 22
15 15 16 16 16 15 15 15 16 16 17 17 18 19 19 19 19 18 19 19 19 19 19 19 19 19 19 19 19 20 19 19 20 20 20 21 22 22 22 22 22 22 22
17 17 17 17 16 16 16 17 17 18 18 19 19 19 20 20 19 20 20 20 19 19 19 19 19 19 19 19 20 20 20 21 21 21 21 21 22 22 22 22 22 22 21
19 19 19 19 18 18 18 18 19 19 20 20 21 21 22 22 21 21 21 20 20 20 20 20 20 20 20 20 21 21 21 22 22 22 22 22 22 22 22 22 22 22 21
20 21 21 21 20 19 19 20 21 21 22 22 22 22 22 22 22 22 21 21 21 21 21 21 21 21 20 20 21 21 22 22 23 23 22 22 22 22 22 21 20 20 20
22 22 22 22 22 22 21 22 22 23 23 24 24 24 24 23 23 22 22 22 22 22 22 22 21 21 21 21 21 21 22 22 22 23 23 22 22 22 22 21 21 20 20
24 24 24 24 24 23 23 23 23 24 25 25 25 25 24 24 24 24 25 25 25 24 24 24 24 23 22 22 22 23 23 23 23 23 23 23 23 23 22 22 21 21 21
25 25 25 24 25 25 25 25 25 25 25 25 25 25 25 26 26 26 26 25 25 25 26 26 25 25 25 25 24 24 24 24 24 24 24 24 24 24 23 22 22 22 22
26 26 26 26 26 25 25 25 25 26 25 26 26 26 27 27 26 26 26 26 26 26 27 27 26 27 27 27 27 26 26 25 26 26 25 25 25 25 24 24 23 23 22
28 27 27 26 26 26 27 27 27 27 27 27 27 27 28 28 28 27 26 26 26 26 26 26 26 27 27 28 28 28 28 27 27 27 27 26 26 25 25 25 24 24 24
29 29 28 28 28 28 28 28 29 29 29 29 29 29 29 29 29 28 27 26 26 27 27 27 27 27 28 28 28 29 29 29 29 28 27 26 26 26 25 25 25 25 25
31 31 30 30 30 30 30 30 30 29 29 29 29 29 29 29 30 29 28 28 28 28 28 28 28 29 29 29 29 29 29 29 29 28 28 27 26 26 26 25 26 26 26
33 34 33 32 31 31 30 30 30 30 30 30 30 30 30 29 30 29 29 28 29 29 29 29 29 29 29 30 30 30 30 29 29 28 28 27 26 26 26 26 26 26 26
34 35 34 32 32 31 32 32 32 32 31 31 31 30 30 29 28 30 30 30 30 30 30 30 30 30 31 31 31 30 30 29 29 28 27 26 26 27 26 26 26 27 27
34 34 34 34 34 34 33 33 33 33 32 32 32 31 31 31 31 31 31 31 31 31 31 31 31 31 31 31 31 30 29 29 29 28 27 27 27 27 27 27 28 28 28
34 34 34 35 35 35 35 34 33 33 32 32 31 32 32 33 33 33 33 33 33 33 33 32 32 32 32 32 32 30 29 29 29 29 28 28 28 28 28 28 28 29 29
34 34 34 34 34 35 35 35 35 33 32 32 32 33 34 33 34 34 34 34 34 33 33 33 33 32 32 32 31 30 29 28 28 28 29 29 29 29 29 29 29 29 30
35 35 35 35 34 34 34 34 34 33 33 33 32 32 32 33 34 35 34 34 34 34 34 34 34 33 32 31 30 30 29 29 29 30 30 30 29 29 29 29 29 30 30
35 35 35 35 34 34 34 34 34 33 33 33 33 32 32 33 33 33 34 34 34 34 35 34 34 33 32 31 31 30 30 30 30 31 30 30 29 29 29 29 29 29 29
35 35 35 35 35 35 34 34 34 33 33 33 33 33 33 33 33 33 34 34 33 33 33 33 33 32 31 31 31 31 31 31 31 30 29 30 30 30 30 30 29 29 29
34 35 35 35 35 35 35 34 33 33 34 34 34 34 33 33 33 34 35 34 33 32 31 31 31 31 30 30 30 30 31 31 31 31 30 30 30 30 30 30 30 29 28
33 33 33 33 33 33 33 33 33 33 34 34 35 35 34 35 35 35 35 33 33 32 31 31 31 31 30 30 30 30 30 30 30 31 31 31 31 31 30 30 30 30 30
32 32 32 31 32 31 31 32 32 33 34 34 35 35 35 35 35 36 35 34 33 32 32 32 32 32 31 31 30 30 30 30 31 31 31 31 31 30 30 31 31 31 32
30 31 31 30 30 30 31 31 32 33 33 33 34 35 35 35 35 36 36 35 33 32 32 32 32 32 31 31 31 30 31 31 31 31 31 31 31 31 31 31 31 32 32
29 30 30 30 30 30 31 31 32 32 32 33 33 34 34 34 34 34 34 34 34 33 32 32 32 32 32 31 30 30 30 30 30 30 30 31 31 31 31 31 31 31 31
Wind_Direction
318 318 318 318 319 320 318 319 321 322 323 323 323 323 321 319 319 315 311 308 306 303 300 299 298 299 298 300 299 298 296 294 294 293 294 295 293 292 294 293 291 288 286
312 313 315 316 316 315 315 316 317 317 318 318 319 320 319 319 317 315 312 307 304 302 299 297 298 299 298 299 297 297 297 295 294 294 294 294 294 293 295 295 293 292 289
306 308 310 310 310 310 313 316 318 318 317 316 317 318 317 315 315 313 311 307 305 303 301 298 299 300 299 298 298 299 299 297 296 296 295 295 295 293 293 293 293 291 289
300 302 304 306 306 305 308 311 316 318 317 316 315 315 315 312 311 308 309 307 305 304 304 302 302 301 301 301 301 301 300 299 299 298 298 297 297 296 295 293 293 291 289
297 298 298 300 301 302 305 309 311 312 313 314 314 313 313 312 309 307 306 306 307 305 305 304 303 301 301 300 301 301 300 300 299 299 299 299 299 299 297 294 291 290 291
296 296 298 298 301 301 302 304 307 308 309 310 310 312 311 309 307 306 305 305 306 305 303 300 299 299 300 300 300 300 300 299 298 297 298 298 297 297 297 296 292 292 293
294 296 300 300 299 297 297 299 303 305 306 307 307 308 308 307 304 302 303 304 304 304 304 300 298 298 300 300 299 301 301 301 298 296 296 296 296 295 295 298 297 293 294
292 294 298 299 300 297 297 297 297 300 302 303 303 304 304 304 302 300 300 301 301 301 301 300 297 296 297 297 298 298 300 301 299 297 296 296 295 295 294 293 295 293 293
291 293 295 297 298 297 295 295 295 297 299 300 302 303 302 302 300 299 299 298 299 300 300 298 295 295 296 295 296 297 297 298 298 297 295 294 294 293 292 291 290 290 291
289 291 293 294 295 293 293 294 295 295 296 298 300 301 301 301 300 298 296 297 297 298 299 297 295 296 296 295 294 294 294 294 294 294 293 292 292 291 290 289 289 289 289
287 289 290 292 295 294 294 294 293 293 294 294 296 298 299 298 298 297 296 296 296 297 297 298 297 297 297 296 295 294 293 293 293 292 290 289 289 289 290 289 288 289 289
286 287 288 289 290 292 292 292 292 292 293 293 294 295 296 296 296 294 293 294 295 294 295 297 297 297 296 296 295 294 294 292 292 292 289 288 287 288 288 288 288 289 289
284 284 286 287 288 290 292 292 292 292 292 292 293 294 293 294 294 292 292 294 293 294 295 297 297 296 296 296 295 294 293 292 292 291 289 286 285 286 285 286 287 289 290
282 284 285 286 287 288 289 290 291 293 292 291 292 293 292 292 293 293 293 294 295 295 295 296 296 295 295 295 295 294 292 292 292 291 288 286 284 284 284 285 287 288 289
283 284 285 285 286 288 290 291 291 294 296 294 292 292 292 292 293 294 293 294 294 295 295 294 293 293 294 294 294 293 292 291 291 290 288 285 283 283 283 283 285 287 289
283 284 285 286 288 289 292 294 295 297 298 296 294 292 291 291 294 295 295 294 294 295 295 295 293 292 292 293 293 291 290 290 289 288 287 285 283 282 281 282 284 286 288
282 283 285 287 289 291 292 293 294 294 295 296 294 293 292 292 293 293 293 292 293 294 294 294 293 292 291 291 291 290 288 288 287 286 285 284 282 281 281 282 283 285 287
281 283 285 287 288 290 291 291 293 293 294 295 295 292 292 292 293 293 293 292 292 292 293 294 293 292 291 291 291 289 287 286 285 285 284 284 282 281 281 281 282 283 285
281 283 284 285 287 289 291 292 292 293 295 295 295 294 294 294 293 293 293 292 291 291 292 293 293 292 291 290 289 287 285 285 284 284 283 282 281 281 281 280 281 282 283
280 282 284 285 286 288 290 291 292 292 293 293 294 295 295 296 296 294 292 293 292 291 292 292 292 290 289 288 287 286 285 284 282 282 281 280 280 280 280 280 281 282 282
279 280 282 283 284 286 287 288 289 290 292 293 293 294 294 295 295 294 294 295 294 292 292 292 292 291 290 289 287 285 284 283 282 281 280 279 279 278 279 279 280 281 281
279 279 281 282 283 284 285 286 287 288 290 291 292 294 294 294 295 295 296 295 295 295 294 294 294 293 293 291 289 286 284 283 282 281 281 279 277 277 278 279 280 280 280
280 281 282 283 284 285 285 286 286 287 288 290 291 293 294 295 294 296 297 296 295 294 294 294 294 294 292 290 288 287 285 283 282 280 280 278 277 276 276 277 277 277 278
280 282 283 284 284 284 286 287 288 289 289 290 291 293 294 295 295 297 297 296 294 293 292 291 291 291 291 290 287 286 285 283 281 281 280 279 278 277 277 278 278 278 278
280 281 282 283 285 285 286 287 289 289 289 290 292 293 294 294 294 295 295 294 293 292 291 291 291 292 291 289 288 288 288 286 283 282 282 282 281 279 279 279 279 278 278
282 282 282 283 284 285 286 287 289 290 290 291 293 294 294 295 295 296 295 294 293 292 291 292 291 292 292 291 289 289 288 286 283 281 280 281 281 282 282 281 280 279 278